SCP
0 0 0 0 0 0 0 0 0 0 0 0 0 0 0 0 0 0 0 0 0 0 0 0 0 0 0 0 0 0 0 0 0 0 0 0 0 0 0 0 0 0 0
0 0 0 0 0 0 0 0 0 0 0 0 0 0 0 0 0 0 0 0 0 0 0 0 0 0 0 0 0 0 0 0 0 0 0 0 0 0 0 0 0 0 0
0 0 0 0 0 0 0 0 0 0 0 0 0 0 0 -0 0 0 0 0 0 0 0 0 0 0 0 0 0 0 0 0 0 0 0 0 0 0 0 0 0 0 0
0 0 0 0 0 0 0 0 0 0 0 0 0 0 0 0 0 0 0 0 0 -0 0 0 0 0 0 0 0 0 0 0 0 0 0 0 0 0 0 0 0 0 0
0 0 0 0 0 0 0 0 0 -0 -0 -0 -0 -0 0 0 0 0 0 0 0 -0 0 0 0 0 0 0 0 0 0 0 0 0 0 0 0 0 0 0 0 0 0
-0 -0 -0 0 0 0 0 0 0 0 0 0 0 0 -0 0 0 0 0 0 0 0 0 0 0 0 0 0 0 0 0 0 0 0 0 0 0 0 0 0 -0 0 0
-0 -0 0 0 0 0 0 0 0 0 0 0 0 0 0 0 0 0 0 0 0 0 0 0 0 0 0 0 0 -0 -0 -0 -0 -0 -0 0 0 0 0 0 0 0 0
-0 -0 0 0 -0 0 0 -0 0 0 0 0 -0 0 0 0 0 0 0 0 0 0 0 0 0 0 0 -0 -0 -0 0 0 0 -0 0 0 0 0 0 0 0 0 0
-0 -0 0 -0 -0 -0 -0 -0 -0 -0 -0 -0 -0 0 0 0 0 0 0 0 -0 -0 0 0 -0 -0 -0 -0 0 0 0 0 0 0 -0 -0 -0 -0 -0 -0 0 0 -0
-0 -0 0 0 -0 -0 -0 -0 0 -0 0 0 0 -0 0 -0 -0 -0 -0 -0 0 0 0 0 0 -0 -0 -0 0 0 -0 0 0 0 0 0 -0 -0 0 -0 0 0 -0
-0 0 0 0 0 0 0 0 0 0 -0 -0 0 -0 0 -0 0 0 -0 -0 -0 -0 0 0 0 -0 -0 -0 -0 0 0 0 0 0 0 -0 -0 0 0 0 -0 -0 -0
0 0 0 -0 0 0 -0 -0 -0 -0 -0 -0 -0 -0 -0 -0 -0 -0 -0 -0 -0 -0 -0 0 0 0 -0 -0 0 -0 0 0 0 0 0 0 -0 -0 -0 0 -0 -0 -0
0 -0 -0 0 -0 -0 -0 -0 -0 -0 -0 -0 -0 -0 -0 -0 0 0 0 0 0 0 0 0 0 0 0 0 0 0 0 -0 0 0 -0 -0 -0 0 0 -0 -0 0 0
0 -0 -0 -0 -0 -0 -0 -0 -0 -0 -0 -0 -0 -0 0 0 -0 -0 -0 0 0 0 0 0 0 0 0 0 0 0 0 0 0 -0 -0 0 0 0 0 0 0 0 0
0 -0 -0 -0 -0 -0 -0 -0 -0 -0 -0 -0 -0 0 -0 0 0 0 0 0 0 0 0 0 0 0 -0 -0 0 0 0 0 0 0 0 0 0 0 -0 0 -0 0 0
-0 -0 -0 -0 -0 -0 0 0 -0 -0 -0 0 0 -0 0 0 -0 -0 -0 -0 -0 0 0 0 0 -0 -0 -0 -0 -0 0 0 0 0 0 0 -0 0 -0 -0 -0 -0 0
-0 -0 -0 -0 -0 -0 0 0 0 0 0 0 0 0 0 0 -0 -0 0 0 0 -0 0 0 0 0 -0 -0 -0 -0 0 0 0 0 0 0 0 -0 -0 -0 -0 -0 0
-0 0 -0 -0 -0 0 0 0 0 0 0 0 0 0 0 0 0 0 0 0 0 0 0 0 0 0 0 0 -0 -0 0 0 0 0 0 0 -0 -0 -0 -0 -0 -0 0
-0 -0 0 0 0 0 0 0 0 0 0 0 0 0 0 0 0 0 0 0 0 0 0 0 0 0 0 0 0 0 0 0 0 0 -0 -0 -0 -0 -0 -0 -0 -0 -0
0 0 0 0 0 0 0 0 0 0 0 0 0 0 0 0 0 0 0 0 0 0 0 0 0 0 0 0 0 0 0 0 0 -0 -0 -0 -0 0 0 -0 -0 -0 -0
0 0 0 0 0 0 0 0 0 0 0 0 0 0 0 0 0 0 0 0 0 0 0 0 0 0 0 0 0 0 0 0 0 -0 0 0 0 0 -0 -0 0 0 0
0 0 0 0 0 0 0 0 0 0 0 0 0 0 0 0 0 0 0 0 0 0 0 0 0 0 0 0 0 0 0 -0 0 0 0 0 0 0 0 0 0 0 0
0 0 0 0 0 0 0 0 0 0 0 0 0 0 0 0 0 0 0 0 0 0 0 0 0 0 0 0 0 0 0 -0 0 0 0 0 0 0 0 0 0 0 0
0 0 0 0 0 0 0 0 0 0 0 0 0 0 0 0 0 0 0 0 0 0 0 0 0 0 0 0 0 0 0 0 0 0 0 0 0 0 0 0 0 0 0
0 0 0 0 0 0 0 0 0 0 0 0 0 0 0 0 0 0 0 0 0 0 0 0 0 0 0 0 -0 -0 -0 0 0 0 0 0 0 0 0 0 0 0 0
0 0 0 0 0 0 0 0 0 0 0 0 0 0 0 0 0 0 0 0 0 0 0 0 0 0 0 0 -0 -0 0 0 -0 -0 0 0 0 0 0 0 0 0 0
Wind_Speed_500mb
44 46 46 44 44 45 44 47 47 39 37 36 38 39 42 41 41 44 41 43 41 38 40 40 40 41 42 60 61 56 48 51 54 62 49 34 48 35 26 21 18 16 21
44 44 44 40 37 37 36 36 33 36 31 30 33 32 35 34 34 36 38 35 34 32 31 32 41 35 40 42 40 34 35 41 37 41 37 30 23 18 16 19 16 15 20
41 43 40 38 35 32 32 32 29 28 24 28 29 31 27 22 24 22 20 18 22 25 22 27 37 38 31 40 42 35 30 30 25 22 22 18 12 15 16 17 13 18 17
38 35 32 30 29 28 30 31 29 26 26 26 27 27 22 19 14 10 16 19 22 26 30 31 30 31 34 36 26 25 17 14 14 13 13 14 12 14 15 16 17 17 18
34 33 28 31 27 28 28 28 27 25 25 26 26 23 23 20 20 20 21 20 21 22 22 24 25 32 26 23 22 12 11 14 13 15 14 15 15 17 18 18 18 17 19
32 31 29 27 28 30 33 31 26 25 23 25 25 26 24 18 23 24 25 16 16 13 16 20 22 18 25 15 15 16 13 11 11 13 10 12 15 18 20 21 21 20 20
34 36 36 32 26 30 26 25 25 22 20 27 30 30 29 26 21 15 11 5 13 16 15 17 18 23 17 12 14 12 9 8 10 11 14 15 18 27 28 24 19 19 19
31 33 30 28 29 31 31 32 32 32 37 44 47 46 44 47 46 37 29 28 32 29 31 30 24 19 21 20 16 9 12 15 14 15 17 17 19 26 29 28 24 19 17
32 34 31 33 34 35 39 42 45 43 39 41 44 47 45 52 51 47 42 38 33 28 25 24 25 23 26 27 25 24 25 24 17 19 14 13 22 24 40 27 21 17 19
31 29 25 27 32 34 34 36 40 42 43 43 44 48 52 53 49 42 34 27 30 26 25 26 34 34 34 32 27 21 21 19 13 21 21 20 25 27 28 30 20 15 17
26 30 32 33 39 43 42 39 42 38 36 36 34 34 34 36 37 38 34 27 26 25 27 27 31 37 36 31 25 21 14 10 10 23 22 20 25 24 21 28 22 17 13
28 31 35 36 31 32 34 32 32 29 33 34 34 32 32 30 44 41 39 36 27 26 28 28 26 28 35 37 34 31 26 24 24 25 27 26 27 24 23 22 22 22 18
35 34 31 33 30 30 30 32 30 32 33 32 34 34 33 29 31 42 41 41 36 27 32 38 42 38 33 31 37 35 30 25 28 28 27 25 27 29 26 23 23 22 24
32 30 28 29 30 30 29 32 32 31 31 31 31 30 30 32 34 30 27 25 28 23 29 30 33 34 37 33 32 33 35 34 33 29 29 28 27 28 27 25 24 27 24
28 26 27 27 28 30 39 40 33 39 38 31 25 28 25 27 38 40 36 28 24 29 27 27 30 33 34 34 34 34 35 36 33 33 32 30 28 27 28 31 24 25 27
25 25 24 22 22 22 23 29 35 37 36 36 33 27 24 30 31 31 32 30 28 32 27 31 34 35 37 38 39 38 38 39 36 35 32 31 30 29 28 32 25 24 25
23 21 20 21 20 20 20 19 22 27 33 39 38 38 37 35 30 28 30 35 39 33 33 35 36 38 39 40 40 41 41 42 37 36 34 33 33 32 30 27 25 27 25
19 23 17 17 18 18 18 19 19 19 20 22 32 34 34 34 32 29 35 30 32 35 35 36 37 38 40 41 42 43 42 43 41 37 35 42 35 30 29 28 27 25 24
16 14 16 16 16 18 17 19 19 20 20 21 21 25 33 35 42 43 39 32 34 35 35 37 37 38 39 40 41 42 43 45 44 39 44 41 35 31 30 28 27 26 25
11 15 18 15 16 16 17 17 18 18 19 21 23 24 19 26 27 29 31 33 33 35 35 36 38 37 38 39 40 42 44 45 43 39 46 45 35 28 32 26 24 21 21
6 9 17 14 15 15 15 16 16 17 18 19 21 30 30 26 25 27 29 31 34 35 37 37 38 38 37 38 40 42 45 46 41 48 52 47 40 30 28 25 21 19 14
5 6 8 11 11 11 11 13 14 16 17 17 18 21 31 21 22 24 26 29 31 33 35 37 39 39 39 40 42 44 46 48 41 51 50 51 38 30 25 22 20 17 13
3 5 7 9 7 11 11 10 11 13 15 17 17 18 18 18 20 21 23 26 29 32 34 37 40 40 40 39 40 42 46 51 41 45 51 55 41 32 24 22 19 17 16
5 6 7 7 4 5 7 9 11 15 14 14 15 15 15 15 17 19 21 23 26 28 32 35 38 42 42 41 42 42 48 56 45 46 58 55 37 33 26 22 16 16 18
3 4 4 4 5 6 9 9 10 11 11 12 13 13 13 13 15 17 19 21 23 26 29 33 37 41 41 44 50 52 50 51 45 41 62 57 39 30 28 23 21 18 18
5 4 4 5 7 8 10 10 11 11 12 12 12 12 13 12 13 14 16 18 20 23 27 30 34 39 46 48 53 54 55 50 48 52 55 61 44 38 30 28 24 26 26
Wind_Direction_500mb
329 326 326 323 322 321 319 318 315 314 313 312 307 300 296 291 281 276 277 280 283 282 282 289 291 295 290 299 297 294 291 288 284 291 290 274 293 296 302 301 303 299 307
331 331 327 325 323 324 327 327 334 342 338 318 312 310 299 292 290 276 277 278 278 285 292 303 296 300 298 304 296 292 295 296 290 288 297 295 295 295 307 316 305 295 297
333 336 335 335 334 332 332 334 341 341 328 324 336 328 320 293 295 277 282 291 303 304 307 302 296 296 306 305 307 306 295 293 294 295 301 314 308 319 332 333 316 320 340
342 345 342 341 341 337 335 338 339 341 337 339 341 349 355 13 347 326 317 310 306 308 309 313 299 292 309 306 309 306 310 329 346 345 335 313 318 326 319 312 313 299 303
350 351 349 344 353 356 354 353 349 344 339 345 343 340 340 338 316 316 315 316 310 314 307 297 301 307 300 313 326 357 20 357 347 328 333 345 355 337 332 328 311 314 317
357 353 349 346 347 347 347 346 349 352 3 352 346 346 335 329 312 313 314 311 321 323 310 310 304 311 341 40 31 31 34 12 8 357 13 13 3 349 338 329 341 334 330
5 1 12 13 10 358 8 6 14 14 9 17 20 20 20 12 360 351 9 2 316 326 341 358 22 59 54 25 5 7 34 33 21 354 360 4 356 348 332 323 318 320 320
14 12 12 11 18 26 29 35 44 47 56 59 52 50 52 49 47 51 58 60 64 64 66 58 45 16 358 360 359 355 306 316 329 339 345 351 350 348 341 328 317 324 321
8 17 25 35 42 46 51 59 63 65 57 52 49 57 63 58 53 57 65 64 56 52 40 24 16 1 353 352 341 308 315 312 307 303 316 336 335 346 352 341 333 328 333
27 29 38 52 63 59 59 60 56 62 58 53 54 58 57 59 52 50 56 34 36 36 31 21 359 356 348 343 343 329 326 325 316 304 316 339 338 341 338 341 342 342 337
41 54 64 68 67 58 54 60 63 45 45 48 48 47 45 47 33 36 38 39 40 28 22 16 14 16 18 15 14 5 354 1 347 331 348 337 339 339 342 337 343 339 335
66 60 64 66 49 48 51 50 45 42 42 48 50 48 40 39 42 39 40 39 47 33 32 17 10 23 29 25 30 28 25 8 352 348 345 350 344 338 335 334 345 341 329
74 70 62 52 49 46 42 43 43 46 48 46 47 45 42 38 25 15 18 19 35 36 28 28 32 32 27 13 23 27 12 358 356 355 353 348 340 343 342 352 346 347 350
67 64 56 50 48 50 54 51 46 48 44 41 42 41 37 34 36 30 23 20 22 24 23 12 23 25 23 22 20 17 17 13 7 351 350 348 348 349 352 352 346 343 346
61 60 60 58 62 53 59 57 52 48 44 43 48 34 43 32 29 27 28 36 36 38 29 20 22 20 18 16 14 12 7 4 7 0 356 351 350 349 348 345 346 341 344
62 58 61 60 56 56 48 49 50 44 39 41 45 52 27 34 29 29 35 33 46 51 29 25 22 19 17 13 10 7 4 1 0 356 355 351 349 345 342 343 354 354 345
52 56 51 55 52 50 45 37 26 9 14 34 43 45 45 41 39 41 43 32 34 40 31 26 21 17 13 10 8 4 2 359 360 355 350 345 345 344 350 345 354 352 346
43 45 53 50 43 38 35 32 28 27 29 23 29 38 43 42 39 40 52 36 29 28 25 20 15 12 9 6 4 2 1 358 358 351 348 345 348 347 350 354 357 347 347
50 49 47 38 34 38 34 35 37 38 39 35 30 17 16 26 24 24 35 32 27 22 19 14 10 7 5 3 2 0 0 358 356 352 352 358 357 356 356 350 346 353 347
28 47 57 39 35 36 37 38 36 36 36 34 29 25 28 25 26 26 27 28 27 21 17 14 8 6 3 3 3 2 1 359 356 353 351 355 356 350 346 348 344 349 348
55 30 51 32 30 34 34 36 34 34 31 29 23 27 45 37 29 29 29 28 24 20 16 16 10 8 6 4 4 3 1 359 355 350 354 354 352 1 359 0 11 7 13
54 50 36 24 23 24 41 31 31 29 28 28 24 12 40 34 34 31 30 27 24 20 18 17 14 11 9 7 5 3 359 357 353 354 5 10 9 5 12 9 20 25 43
341 347 354 356 0 33 25 28 29 26 24 22 22 22 28 31 30 29 25 23 21 19 18 17 17 14 12 12 9 6 1 359 358 358 7 5 8 13 12 18 33 51 67
301 314 327 342 347 27 18 18 10 17 26 16 15 18 21 22 21 18 19 18 19 18 19 18 18 16 14 15 11 9 5 7 13 8 11 6 20 24 24 30 51 74 80
359 353 0 359 355 352 355 3 1 3 2 4 7 9 8 10 10 12 13 14 14 18 17 19 19 16 16 16 17 16 13 12 16 16 16 14 18 15 23 45 64 83 96
350 356 357 348 340 338 337 340 344 346 347 347 352 354 359 359 359 3 9 10 15 14 19 17 19 19 22 20 21 19 17 16 25 21 14 15 28 37 50 62 72 80 93
Wind_Speed_850mb
44 46 46 44 44 45 44 47 47 39 37 36 38 39 42 41 41 44 41 43 41 38 40 40 40 41 42 60 61 56 48 51 54 62 49 34 48 35 26 21 18 16 21
44 44 44 40 37 37 36 36 33 36 31 30 33 32 35 34 34 36 38 35 34 32 31 32 41 35 40 42 40 34 35 41 37 41 37 30 23 18 16 19 16 15 20
41 43 40 38 35 32 32 32 29 28 24 28 29 31 27 22 24 22 20 18 22 25 22 27 37 38 31 40 42 35 30 30 25 22 22 18 12 15 16 17 13 18 17
38 35 32 30 29 28 30 31 29 26 26 26 27 27 22 19 14 10 16 19 22 26 30 31 30 31 34 36 26 25 17 14 14 13 13 14 12 14 15 16 17 17 18
34 33 28 31 27 28 28 28 27 25 25 26 26 23 23 20 20 20 21 20 21 22 22 24 25 32 26 23 22 12 11 14 13 15 14 15 15 17 18 18 18 17 19
32 31 29 27 28 30 33 31 26 25 23 25 25 26 24 18 23 24 25 16 16 13 16 20 22 18 25 15 15 16 13 11 11 13 10 12 15 18 20 21 21 20 20
34 36 36 32 26 30 26 25 25 22 20 27 30 30 29 26 21 15 11 5 13 16 15 17 18 23 17 12 14 12 9 8 10 11 14 15 18 27 28 24 19 19 19
31 33 30 28 29 31 31 32 32 32 37 44 47 46 44 47 46 37 29 28 32 29 31 30 24 19 21 20 16 9 12 15 14 15 17 17 19 26 29 28 24 19 17
32 34 31 33 34 35 39 42 45 43 39 41 44 47 45 52 51 47 42 38 33 28 25 24 25 23 26 27 25 24 25 24 17 19 14 13 22 24 40 27 21 17 19
31 29 25 27 32 34 34 36 40 42 43 43 44 48 52 53 49 42 34 27 30 26 25 26 34 34 34 32 27 21 21 19 13 21 21 20 25 27 28 30 20 15 17
26 30 32 33 39 43 42 39 42 38 36 36 34 34 34 36 37 38 34 27 26 25 27 27 31 37 36 31 25 21 14 10 10 23 22 20 25 24 21 28 22 17 13
28 31 35 36 31 32 34 32 32 29 33 34 34 32 32 30 44 41 39 36 27 26 28 28 26 28 35 37 34 31 26 24 24 25 27 26 27 24 23 22 22 22 18
35 34 31 33 30 30 30 32 30 32 33 32 34 34 33 29 31 42 41 41 36 27 32 38 42 38 33 31 37 35 30 25 28 28 27 25 27 29 26 23 23 22 24
32 30 28 29 30 30 29 32 32 31 31 31 31 30 30 32 34 30 27 25 28 23 29 30 33 34 37 33 32 33 35 34 33 29 29 28 27 28 27 25 24 27 24
28 26 27 27 28 30 39 40 33 39 38 31 25 28 25 27 38 40 36 28 24 29 27 27 30 33 34 34 34 34 35 36 33 33 32 30 28 27 28 31 24 25 27
25 25 24 22 22 22 23 29 35 37 36 36 33 27 24 30 31 31 32 30 28 32 27 31 34 35 37 38 39 38 38 39 36 35 32 31 30 29 28 32 25 24 25
23 21 20 21 20 20 20 19 22 27 33 39 38 38 37 35 30 28 30 35 39 33 33 35 36 38 39 40 40 41 41 42 37 36 34 33 33 32 30 27 25 27 25
19 23 17 17 18 18 18 19 19 19 20 22 32 34 34 34 32 29 35 30 32 35 35 36 37 38 40 41 42 43 42 43 41 37 35 42 35 30 29 28 27 25 24
16 14 16 16 16 18 17 19 19 20 20 21 21 25 33 35 42 43 39 32 34 35 35 37 37 38 39 40 41 42 43 45 44 39 44 41 35 31 30 28 27 26 25
11 15 18 15 16 16 17 17 18 18 19 21 23 24 19 26 27 29 31 33 33 35 35 36 38 37 38 39 40 42 44 45 43 39 46 45 35 28 32 26 24 21 21
6 9 17 14 15 15 15 16 16 17 18 19 21 30 30 26 25 27 29 31 34 35 37 37 38 38 37 38 40 42 45 46 41 48 52 47 40 30 28 25 21 19 14
5 6 8 11 11 11 11 13 14 16 17 17 18 21 31 21 22 24 26 29 31 33 35 37 39 39 39 40 42 44 46 48 41 51 50 51 38 30 25 22 20 17 13
3 5 7 9 7 11 11 10 11 13 15 17 17 18 18 18 20 21 23 26 29 32 34 37 40 40 40 39 40 42 46 51 41 45 51 55 41 32 24 22 19 17 16
5 6 7 7 4 5 7 9 11 15 14 14 15 15 15 15 17 19 21 23 26 28 32 35 38 42 42 41 42 42 48 56 45 46 58 55 37 33 26 22 16 16 18
3 4 4 4 5 6 9 9 10 11 11 12 13 13 13 13 15 17 19 21 23 26 29 33 37 41 41 44 50 52 50 51 45 41 62 57 39 30 28 23 21 18 18
5 4 4 5 7 8 10 10 11 11 12 12 12 12 13 12 13 14 16 18 20 23 27 30 34 39 46 48 53 54 55 50 48 52 55 61 44 38 30 28 24 26 26
Wind_Direction_850mb
329 326 326 323 322 321 319 318 315 314 313 312 307 300 296 291 281 276 277 280 283 282 282 289 291 295 290 299 297 294 291 288 284 291 290 274 293 296 302 301 303 299 307
331 331 327 325 323 324 327 327 334 342 338 318 312 310 299 292 290 276 277 278 278 285 292 303 296 300 298 304 296 292 295 296 290 288 297 295 295 295 307 316 305 295 297
333 336 335 335 334 332 332 334 341 341 328 324 336 328 320 293 295 277 282 291 303 304 307 302 296 296 306 305 307 306 295 293 294 295 301 314 308 319 332 333 316 320 340
342 345 342 341 341 337 335 338 339 341 337 339 341 349 355 13 347 326 317 310 306 308 309 313 299 292 309 306 309 306 310 329 346 345 335 313 318 326 319 312 313 299 303
350 351 349 344 353 356 354 353 349 344 339 345 343 340 340 338 316 316 315 316 310 314 307 297 301 307 300 313 326 357 20 357 347 328 333 345 355 337 332 328 311 314 317
357 353 349 346 347 347 347 346 349 352 3 352 346 346 335 329 312 313 314 311 321 323 310 310 304 311 341 40 31 31 34 12 8 357 13 13 3 349 338 329 341 334 330
5 1 12 13 10 358 8 6 14 14 9 17 20 20 20 12 360 351 9 2 316 326 341 358 22 59 54 25 5 7 34 33 21 354 360 4 356 348 332 323 318 320 320
14 12 12 11 18 26 29 35 44 47 56 59 52 50 52 49 47 51 58 60 64 64 66 58 45 16 358 360 359 355 306 316 329 339 345 351 350 348 341 328 317 324 321
8 17 25 35 42 46 51 59 63 65 57 52 49 57 63 58 53 57 65 64 56 52 40 24 16 1 353 352 341 308 315 312 307 303 316 336 335 346 352 341 333 328 333
27 29 38 52 63 59 59 60 56 62 58 53 54 58 57 59 52 50 56 34 36 36 31 21 359 356 348 343 343 329 326 325 316 304 316 339 338 341 338 341 342 342 337
41 54 64 68 67 58 54 60 63 45 45 48 48 47 45 47 33 36 38 39 40 28 22 16 14 16 18 15 14 5 354 1 347 331 348 337 339 339 342 337 343 339 335
66 60 64 66 49 48 51 50 45 42 42 48 50 48 40 39 42 39 40 39 47 33 32 17 10 23 29 25 30 28 25 8 352 348 345 350 344 338 335 334 345 341 329
74 70 62 52 49 46 42 43 43 46 48 46 47 45 42 38 25 15 18 19 35 36 28 28 32 32 27 13 23 27 12 358 356 355 353 348 340 343 342 352 346 347 350
67 64 56 50 48 50 54 51 46 48 44 41 42 41 37 34 36 30 23 20 22 24 23 12 23 25 23 22 20 17 17 13 7 351 350 348 348 349 352 352 346 343 346
61 60 60 58 62 53 59 57 52 48 44 43 48 34 43 32 29 27 28 36 36 38 29 20 22 20 18 16 14 12 7 4 7 0 356 351 350 349 348 345 346 341 344
62 58 61 60 56 56 48 49 50 44 39 41 45 52 27 34 29 29 35 33 46 51 29 25 22 19 17 13 10 7 4 1 0 356 355 351 349 345 342 343 354 354 345
52 56 51 55 52 50 45 37 26 9 14 34 43 45 45 41 39 41 43 32 34 40 31 26 21 17 13 10 8 4 2 359 360 355 350 345 345 344 350 345 354 352 346
43 45 53 50 43 38 35 32 28 27 29 23 29 38 43 42 39 40 52 36 29 28 25 20 15 12 9 6 4 2 1 358 358 351 348 345 348 347 350 354 357 347 347
50 49 47 38 34 38 34 35 37 38 39 35 30 17 16 26 24 24 35 32 27 22 19 14 10 7 5 3 2 0 0 358 356 352 352 358 357 356 356 350 346 353 347
28 47 57 39 35 36 37 38 36 36 36 34 29 25 28 25 26 26 27 28 27 21 17 14 8 6 3 3 3 2 1 359 356 353 351 355 356 350 346 348 344 349 348
55 30 51 32 30 34 34 36 34 34 31 29 23 27 45 37 29 29 29 28 24 20 16 16 10 8 6 4 4 3 1 359 355 350 354 354 352 1 359 0 11 7 13
54 50 36 24 23 24 41 31 31 29 28 28 24 12 40 34 34 31 30 27 24 20 18 17 14 11 9 7 5 3 359 357 353 354 5 10 9 5 12 9 20 25 43
341 347 354 356 0 33 25 28 29 26 24 22 22 22 28 31 30 29 25 23 21 19 18 17 17 14 12 12 9 6 1 359 358 358 7 5 8 13 12 18 33 51 67
301 314 327 342 347 27 18 18 10 17 26 16 15 18 21 22 21 18 19 18 19 18 19 18 18 16 14 15 11 9 5 7 13 8 11 6 20 24 24 30 51 74 80
359 353 0 359 355 352 355 3 1 3 2 4 7 9 8 10 10 12 13 14 14 18 17 19 19 16 16 16 17 16 13 12 16 16 16 14 18 15 23 45 64 83 96
350 356 357 348 340 338 337 340 344 346 347 347 352 354 359 359 359 3 9 10 15 14 19 17 19 19 22 20 21 19 17 16 25 21 14 15 28 37 50 62 72 80 93